metlocid,date_time,avg_wspd,std_wspd,min_wspd,max_wspd,n_wspd,n_comments
COHM,11/1/93,3.146376814,1.10806931,1.1,5.5,69,0
COHM,12/1/93,3.672838614,1.848564989,0.3,11.1,1388,6
COHM,1/1/94,2.954398825,1.250322603,0.1,6.7,682,2
COHM,2/1/94,3.287906972,1.422102822,0.7,7.9,215,0
COHM,3/1/94,3.764112902,1.647167368,0.8,8.9,248,0
COHM,4/1/94,3.882083332,1.685916265,0.6,7.3,240,0
COHM,5/1/94,3.928048786,2.280079201,1.2,18.6,246,0
COHM,6/1/94,4.514583343,2.497227712,1.3,14.9,240,1
COHM,7/1/94,4.365725813,2.446081447,0.8,14.8,248,3
COHM,8/1/94,4.170564509,1.419093511,1.2,8.9,248,0
COHM,9/1/94,3.58958333,1.605122485,0.8,12.4,240,0
COHM,10/1/94,3.369758052,1.559304286,0.7,8.9,248,0
COHM,11/1/94,3.686206894,1.862905481,1,9.8,116,978
COHM,12/1/94,3.173609391,1.608777547,0,10.3,1618,2232
COHM,1/1/95,3.490444147,1.571405372,0,8.7,2229,1624
COHM,2/1/95,3.992361112,2.727718384,0.06,17.46,2016,0
COHM,3/1/95,4.011021965,2.506238981,0,14.27,2231,0
COHM,4/1/95,3.73614352,1.920281331,0.14,11.66,2160,0
COHM,5/1/95,3.594018818,2.373912457,0.03,16.41,2232,0
COHM,6/1/95,4.399074073,2.67686682,0.16,17.55,2160,0
COHM,7/1/95,4.03267473,2.248644546,0.15,12.45,2232,0
COHM,8/1/95,4.757728498,2.998645431,0.19,18.37,2232,0
COHM,9/1/95,3.603976852,2.349489352,0.01,14.77,2160,0
COHM,10/1/95,3.98465502,2.666289968,0.05,14.31,2232,0
COHM,11/1/95,3.982822691,2.314029093,0.23,13.09,2239,0
COHM,12/1/95,3.290225893,1.535314782,0.13,9.27,2966,1814
COHM,1/1/96,3.745998655,1.932371964,0,10.8,2974,2974
COHM,2/1/96,3.484446836,1.613720876,0,7.7,2784,2784
COHM,3/1/96,3.963575269,3.099259416,0,21.8,2976,2976
COHM,4/1/96,4.124687499,2.319844679,0.1,18.2,2880,2880
COHM,5/1/96,3.766465051,2.109080261,0,12.4,2976,2976
COHM,6/1/96,4.657986111,2.690938852,0.1,16.1,2880,2880
COHM,7/1/96,4.288676076,2.076970033,0,14.8,2976,2976
COHM,8/1/96,4.340120968,2.53984778,0,16.4,2976,2976
COHM,9/1/96,4.1959375,1.804983499,0.1,14.3,2880,2880
COHM,10/1/96,3.340389782,1.959243993,0,14.3,2976,2976
COHM,11/1/96,3.556825287,1.849418462,0,11,2879,1312
COHM,12/1/96,3.44544538,1.546159942,0.1,10.2,2975,0
COHM,1/1/97,3.134267661,1.514024167,0,8.7,2533,1
COHM,5/1/97,3.894659541,1.930357898,0.5,12.7,749,0
COHM,6/1/97,4.567713006,2.804233267,0.1,15.4,1784,0
COHM,11/1/97,2.769274804,1.069689582,0.2,5.1,524,0
COHM,12/1/97,3.694623655,1.471329813,0,8.5,2976,8
COHM,1/1/98,3.803518268,1.767752447,0,8.3,2956,5
COHM,2/1/98,3.630245534,1.950924803,0,10.9,2688,1
COHM,3/1/98,3.909475805,2.14977136,0,11.8,2976,1
COHM,4/1/98,4.502152778,1.894076495,0.1,13.3,2880,0
COHM,5/1/98,4.497009403,2.600581916,0.3,15.5,2976,0
COHM,6/1/98,3.979236109,2.5183797,0,15.1,2880,1
COHM,7/1/98,3.940255377,2.439071149,0,18.2,2976,4
COHM,8/1/98,3.963608864,3.227874852,0,19.4,2976,1
COHM,9/1/98,2.765729166,1.606932649,0,10,2880,2
COHM,10/1/98,3.439341913,2.070245154,0.1,14,2796,0
COHM,11/1/98,3.459214656,1.62062932,0.1,9.7,1910,0
COHM,12/1/98,3.906149191,2.2260488,0.2,14.2,2976,0
COHM,1/1/99,3.326982525,1.584859384,0,9,2976,3
COHM,2/1/99,3.203869045,1.464290204,0,9.1,2688,0
COHM,3/1/99,3.585853495,1.721290748,0,8.6,2976,1
COHM,4/1/99,4.100416664,2.010182441,0.1,11.8,2880,0
COHM,5/1/99,4.483098118,1.809407705,0.4,13.5,2976,0
COHM,6/1/99,3.708541667,2.587733236,0,18.4,2880,144
COHM,7/1/99,4.553326614,2.766660281,0.1,15.7,2976,0
COHM,8/1/99,4.284374998,1.994166569,0,12.9,2976,0
COHM,9/1/99,3.993194442,2.452799053,0.1,13.3,2880,0
COHM,10/1/99,4.066935485,3.199992995,0.1,22.9,2976,0
COHM,11/1/99,3.411597221,1.886841575,0.1,11.8,2880,0
COHM,12/1/99,3.685752685,1.704352897,0.2,11.6,2976,0
COHM,1/1/00,3.499529568,1.481833905,0.2,10.2,2976,0
COHM,2/1/00,3.706250001,1.911821056,0.1,14.5,2784,0
COHM,3/1/00,3.901344087,2.178295893,0.1,14.7,2976,0
COHM,4/1/00,4.334756942,2.047351141,0.4,12.2,2880,0
COHM,5/1/00,3.6765793,2.044090281,0,11.5,2976,0
COHM,6/1/00,4.149687501,2.131710318,0.2,15.1,2880,0
COHM,7/1/00,4.777284945,2.667982871,0.2,16,2976,0
COHM,8/1/00,5.016330643,2.802877648,0.1,16,2976,0
COHM,9/1/00,4.799270824,3.394937705,0.1,20.7,2880,0
COHM,10/1/00,3.065255375,1.751740301,0.1,8.9,2976,0
COHM,11/1/00,4.230590276,2.517324136,0.2,13.2,2880,0
COHM,12/1/00,3.479065857,1.536194775,0.3,8.6,2976,0
COHM,1/1/01,3.20756048,1.522441635,0.1,9,2976,0
COHM,2/1/01,3.298288688,1.615890587,0.1,10.3,2688,0
COHM,3/1/01,3.717708331,2.141471792,0.2,18.3,2976,0
COHM,4/1/01,3.610763886,2.104091047,0.1,12.8,2880,0
COHM,5/1/01,4.717641131,2.842820469,0.2,17.2,2976,0
COHM,6/1/01,4.466527779,3.384780594,0.2,19.7,2880,0
COHM,7/1/01,4.790625001,2.84773645,0.4,19.7,2976,0
COHM,8/1/01,3.543178761,1.827397614,0,8.2,2976,1
COHM,9/1/01,3.913055553,1.989350697,0.1,13.4,2880,0
COHM,10/1/01,4.097446236,2.210182746,0.3,12.7,2976,0
COHM,11/1/01,3.866909724,1.912438631,0.2,11.8,2880,0
COHM,12/1/01,3.890994621,2.388483479,0.3,15.7,2976,0
COHM,1/1/02,3.144690856,2.263589483,0,16.7,2976,7
COHM,2/1/02,2.976041665,1.586085417,0,12,2688,2
COHM,3/1/02,3.657661287,2.092883929,0.1,12.4,2976,0
COHM,4/1/02,3.989687501,2.177377751,0.3,15.3,2880,0
COHM,5/1/02,3.957594087,2.461850669,0,13.5,2976,2
COHM,6/1/02,3.505624998,1.862523104,0.1,12.8,2880,0
COHM,7/1/02,4.101646507,2.111935034,0,16.7,2976,1
COHM,8/1/02,3.955309139,2.42498176,0.1,17.7,2976,0
COHM,9/1/02,3.422534722,1.939536505,0.2,11.8,2880,0
COHM,10/1/02,3.23847446,1.852542626,0.1,12,2976,0
COHM,11/1/02,3.594861106,2.259465358,0,15.4,2880,3
COHM,12/1/02,3.190624999,1.611317999,0,10.8,2976,1
COHM,1/1/03,3.238172043,1.713711752,0,9.7,2976,3
COHM,2/1/03,2.9391369,1.487772119,0.1,8.6,2688,0
COHM,3/1/03,4.011693547,2.377026819,0,15.1,2976,8
COHM,4/1/03,3.699270834,2.192177868,0,17.2,2880,3
COHM,5/1/03,5.085450272,3.235342649,0.1,19.1,2976,0
COHM,6/1/03,4.160555553,2.182881959,0.1,12.5,2880,0
COHM,7/1/03,5.241801077,2.907767633,0.4,17.2,2976,0
COHM,8/1/03,3.701713705,1.837720661,0,11.2,2976,1
COHM,9/1/03,5.55625,4.332329085,0.1,21.9,2880,0
COHM,10/1/03,3.914952957,2.562506957,0.2,16.8,2976,0
COHM,11/1/03,3.954895831,1.835735259,0.1,10.5,2880,0
COHM,12/1/03,3.415826608,1.855655406,0.2,15.7,2976,0
COHM,1/1/04,3.124966396,1.296396429,0.2,8.8,2976,0
COHM,2/1/04,3.088900857,1.496423693,0.1,7.7,2784,0
COHM,3/1/04,3.220194892,1.861218204,0,8.3,2976,1
COHM,4/1/04,3.989097218,1.932470361,0.1,11.2,2880,0
COHM,5/1/04,5.093716389,2.574207716,0.2,16.8,2976,0
COHM,6/1/04,6.016249999,5.269617068,0.2,29.5,2880,0
COHM,7/1/04,3.668380372,1.770595929,0.1,13.1,2976,0
COHM,8/1/04,4.705846772,3.86970124,0.2,29.5,2976,0
COHM,9/1/04,3.32149305,1.857543745,0.2,11.7,2880,0
COHM,10/1/04,3.765490589,2.488982502,0,15.2,2976,1
COHM,11/1/04,3.742430553,2.15718667,0.2,13.6,2880,0
COHM,12/1/04,3.201948923,1.490878566,0,10.6,2976,1
COHM,1/1/05,3.183837363,1.656067284,0,12.1,2976,1
COHM,2/1/05,3.417931549,1.676477036,0,9.9,2688,1
COHM,3/1/05,3.739314513,1.89457609,0.1,8.9,2976,0
COHM,4/1/05,3.435555551,1.755471681,0.1,10,2880,0
COHM,5/1/05,4.34768145,2.410621034,0.2,15.2,2976,0
COHM,6/1/05,4.368958332,3.42342446,0.2,18.8,2880,0
COHM,7/1/05,4.491229834,3.247525293,0.1,24.6,2976,0
COHM,8/1/05,3.852755379,2.515265494,0.1,19.2,2976,0
COHM,9/1/05,4.225763887,1.781352244,0.4,12.8,2880,0
COHM,10/1/05,3.728662632,2.551295935,0.1,15.5,2976,0
COHM,11/1/05,3.312430555,1.761588445,0,10.5,2880,3
COHM,12/1/05,3.160450266,1.485408585,0.1,11.1,2976,0
COHM,1/1/06,3.123966385,1.453826571,0.2,9.4,2975,0
COHM,2/1/06,3.158928569,1.657059165,0,10.4,2688,2
COHM,3/1/06,3.388440857,2.301378635,0,20.4,2976,1
COHM,4/1/06,3.822395832,2.052679399,0.1,14.8,2880,0
COHM,5/1/06,3.846572578,2.072606852,0.1,20.8,2976,0
COHM,6/1/06,5.051944441,2.766415778,0.2,15.9,2880,0
COHM,7/1/06,3.929301074,1.952178265,0.2,18.1,2976,0
COHM,8/1/06,4.136122312,2.783476265,0,15.9,2976,1
COHM,9/1/06,5.136354168,3.590276894,0,18.5,2880,2
COHM,10/1/06,3.51055107,1.864901708,0.1,11.8,2976,0
COHM,11/1/06,3.316145828,1.685165977,0,9.9,2880,5
COHM,12/1/06,3.639146501,1.856979509,0.1,13.4,2976,0
COHM,1/1/07,3.545934135,1.86560111,0.1,12.4,2976,0
COHM,2/1/07,3.456622023,1.680420106,0.1,11.5,2688,0
COHM,3/1/07,3.864482524,1.914608662,0.2,12.1,2976,0
COHM,4/1/07,4.985208333,3.195975344,0.2,18.3,2880,0
COHM,5/1/07,4.705544354,2.956245541,0,27.3,2976,1
COHM,6/1/07,4.945868053,2.825067102,0,20.2,2880,1
COHM,7/1/07,4.962634402,2.765266251,0.1,18.1,2976,0
COHM,8/1/07,4.911391126,2.906903045,0.4,21.2,2976,0
COHM,9/1/07,4.684166659,3.108712108,0.2,18.9,2880,0
COHM,10/1/07,3.213978497,2.137443585,0,13.6,2976,1
COHM,11/1/07,3.367812498,2.13770191,0.1,13.4,2880,1092
COHM,12/1/07,3.815423383,1.648208814,0.1,9.8,2976,2976
COHM,1/1/08,3.792708332,1.636104387,0,11.4,2976,447
COHM,2/1/08,3.528412352,1.735754355,0,10.2,2784,2
COHM,3/1/08,3.51737231,2.227215299,0,15.5,2976,2
COHM,4/1/08,3.936215275,2.200190458,0,14,2880,2
COHM,5/1/08,4.540154568,2.088448546,0.3,12.4,2976,0
COHM,6/1/08,5.052604165,4.030432189,0,25.9,2880,1
COHM,7/1/08,4.480544356,2.229831628,0.1,15.4,2976,0
COHM,8/1/08,3.998555104,1.872066561,0.2,14.2,2976,0
COHM,9/1/08,4.882951393,2.766452444,0.1,15.2,2880,0
COHM,10/1/08,3.121001344,1.959843713,0,11.7,2976,3
COHM,11/1/08,3.324895828,1.849542525,0.1,11.3,2880,0
COHM,12/1/08,3.624361553,1.837470288,0.2,13,2976,0
COHM,1/1/09,2.983635752,1.34993969,0,10.7,2976,2
COHM,2/1/09,2.944308034,1.488026011,0,8.1,2688,2
COHM,3/1/09,3.100504032,1.54437872,0,7.4,2976,1
COHM,4/1/09,4.868402777,3.157348874,0.3,18.2,2880,0
COHM,5/1/09,4.057325267,2.069901166,0.1,13.4,2976,0
COHM,6/1/09,4.33576389,1.9358195,0.1,12.1,2880,0
COHM,7/1/09,3.657762094,1.88011985,0,12.3,2976,2
COHM,8/1/09,3.979838703,2.36952715,0,14.8,2976,1
COHM,9/1/09,4.834618054,3.009251605,0.1,19.3,2880,0
COHM,10/1/09,3.380241934,1.997389748,0.1,14.6,2976,0
COHM,11/1/09,3.809201387,2.2153265,0.2,13,2880,0
COHM,12/1/09,3.508198921,1.486526597,0.3,9.5,2976,0
COHM,1/1/10,3.29445564,1.565587766,0.1,8.5,2976,0
COHM,2/1/10,3.471837799,2.025628334,0.2,11,2688,0
COHM,3/1/10,3.616196237,1.976573676,0,10.3,2976,1
COHM,4/1/10,4.315520835,2.003425014,0.3,12.9,2880,0
COHM,5/1/10,3.877016127,1.927742436,0.2,15.5,2976,0
COHM,6/1/10,4.331805553,1.920275051,0.2,12.7,2880,0
COHM,7/1/10,4.93797043,2.880210623,0.5,18.7,2976,0
COHM,8/1/10,4.303696238,2.802946796,0.2,19.8,2976,0
COHM,9/1/10,4.040659719,2.172035534,0.2,14.7,2880,0
COHM,10/1/10,3.470060483,2.437105491,0.1,24.7,2976,0
COHM,11/1/10,4.347361111,2.569465613,0.4,26.9,2880,0
COHM,12/1/10,3.612063169,2.216936864,0,16.5,2976,1
COHM,1/1/11,2.728763439,1.25455511,0,6.3,2976,2
COHM,2/1/11,3.553348211,2.160246599,0.1,12.2,2688,0
COHM,3/1/11,3.988138441,1.928196034,0.3,12,2976,0
COHM,4/1/11,3.954791668,2.974681509,0,18.4,2880,7
COHM,5/1/11,3.796505375,2.233946179,0.1,14.6,2976,0
COHM,6/1/11,4.103055553,2.8951621,0,16.1,2880,1
COHM,7/1/11,5.039650536,3.551173142,0.3,18.1,2976,0
COHM,8/1/11,4.076075267,2.440185737,0,20,2976,1
COHM,9/1/11,4.032465275,3.590130356,0,22.2,2880,3
COHM,10/1/11,3.538541667,2.230335495,0.1,15.5,2976,0
COHM,11/1/11,3.382638889,1.670988583,0.2,10.7,2880,0
COHM,12/1/11,3.860819889,2.411085855,0.3,18.6,2976,0
COHM,1/1/12,3.424535313,1.43735995,0.1,8,2959,0
COHM,2/1/12,3.846623566,2.045217236,0,11.4,2784,6
COHM,3/1/12,4.070732525,2.028211183,0,11.8,2976,1
COHM,4/1/12,4.572986112,2.111252567,0.1,13,2880,0
COHM,5/1/12,6.001545702,3.926215833,0,18.1,2976,1
COHM,6/1/12,4.592499999,2.776646645,0.3,21,2880,0
COHM,7/1/12,3.770194891,1.963526776,0.1,15.5,2976,0
COHM,8/1/12,5.021740588,4.128577327,0.1,27.3,2976,0
COHM,9/1/12,4.584305554,2.644846,0.2,15.8,2880,0
COHM,10/1/12,3.560853496,2.399230232,0,15.7,2976,2
COHM,11/1/12,3.464652776,1.756534139,0.2,10.3,2880,0
COHM,12/1/12,3.203158598,1.529990419,0.1,8.9,2976,0
COHM,1/1/13,3.61051747,1.693902142,0.1,9.5,2976,0
COHM,2/1/13,3.331249998,1.711933532,0,9.4,2688,2
COHM,3/1/13,3.886424731,2.165290099,0,13.2,2976,2
COHM,4/1/13,4.689583332,2.357918642,0.1,13.9,2880,0
COHM,5/1/13,4.191397846,2.578600999,0.1,13.9,2976,0
COHM,6/1/13,3.936979165,2.039627536,0.1,11.7,2880,0
COHM,7/1/13,4.166733871,2.216441744,0.1,14.7,2976,0
COHM,8/1/13,4.204737899,2.641036416,0.2,24.1,2976,0
COHM,9/1/13,4.284305553,2.890347,0.2,20,2880,0
COHM,10/1/13,3.13692876,1.877177525,0,12.4,2976,1
COHM,11/1/13,3.554201387,2.017702926,0.1,11.5,2880,0
COHM,12/1/13,3.395161289,1.427439423,0.2,8.8,2976,0
COHM,1/1/14,3.562302523,2.297039578,0.08,14.2,2975,2682
COHM,2/1/14,3.790182359,1.849683515,0.06,11.21,2687,2687
COHM,3/1/14,3.755483872,1.525928211,0.09,10.21,2976,2976
COHM,4/1/14,3.742166667,2.068765754,0.17,19.3,2880,2880
COHM,5/1/14,3.776932124,2.728463578,0.13,18.52,2976,2976
COHM,6/1/14,3.859388889,1.866023896,0.26,14.23,2880,2880
COHM,7/1/14,3.849385082,1.56901431,0.27,13.9,2976,2976
COHM,8/1/14,4.630309137,3.134751352,0.36,18.09,2976,2976
COHM,9/1/14,4.257840278,2.687551892,0.22,16.01,2880,2880
COHM,10/1/14,4.386859446,3.026273414,0.11,15.02,2974,2974
COHM,11/1/14,3.374351308,1.533772817,0.17,10.21,2875,2875
COHM,12/1/14,3.947950268,1.523572238,0.15,8.87,2976,2976
COHM,1/1/15,3.545825209,1.651090582,0.06,9.43,2975,2975
COHM,2/1/15,3.75436546,2.001346068,0.11,11.61,2687,2687
COHM,3/1/15,4.362409273,1.776068418,0.22,8.78,2976,2976
COHM,4/1/15,3.741522689,1.942334518,0.06,9.16,2292,2292
COHM,5/1/15,4.152987229,1.996574687,0.12,15,2976,2976
COHM,6/1/15,4.841538731,2.694259704,0.09,19.9,2879,2879
COHM,7/1/15,4.019469087,2.589929907,0.08,18.55,2976,2976
COHM,8/1/15,4.703111562,3.430635832,0.13,24.86,2976,2976
COHM,9/1/15,4.746919347,3.126843242,0.22,18.01,2678,2678
COHM,10/1/15,4.099348117,2.38988103,0.08,14.45,2976,2976
COHM,11/1/15,3.746393853,2.015627265,0.25,13.07,2798,557
COHM,12/1/15,3.770181578,1.868582458,0.15,16.03,2974,0
COHM,1/1/16,3.508978496,1.760306513,0,10.25,2976,0
COHM,2/1/16,3.709022986,1.818874878,0.26,12.45,2784,0
COHM,3/1/16,3.913014112,1.86734452,0.14,12.69,2976,0
COHM,4/1/16,3.516817424,1.865246619,0.25,10.11,1194,0
COHM,5/1/16,6.44403639,5.280572928,0.05,28.93,1209,0
COHM,6/1/16,3.4963125,1.726082327,0.04,9.59,2880,0
COHM,7/1/16,3.762110218,1.963214134,0.19,13.75,2976,0
COHM,8/1/16,4.429099461,2.203116152,0.18,15.41,2976,0
COHM,9/1/16,3.743965279,1.856405868,0.34,11.35,2880,0
COHM,10/1/16,3.005537471,1.963611601,0.05,12.05,2949,0
COHM,11/1/16,2.786986112,1.773037601,0,11.01,2880,0
COHM,12/1/16,2.857358872,1.629859308,0.23,10.05,2976,0
COHM,1/1/17,3.470517479,1.922173968,0.05,10.79,2976,0
COHM,2/1/17,3.434296877,1.692247839,0.11,11.36,2688,0
COHM,3/1/17,3.398733202,2.034893125,0.07,12.32,2976,0
COHM,4/1/17,5.129770831,2.444877248,0.21,17.98,2880,0
COHM,5/1/17,4.634223793,3.391804017,0.14,23.15,2976,0
COHM,6/1/17,4.168666668,2.250774919,0.13,16.62,2880,0
COHM,7/1/17,4.769744625,2.783383284,0.06,18.09,2976,0
COHM,8/1/17,5.314448926,3.483275676,0.24,21.09,2976,0
COHM,9/1/17,4.188006947,2.292860931,0.15,14.52,2880,0
COHM,10/1/17,4.075198249,2.958638748,0.12,16.07,2976,0
COHM,11/1/17,3.185203479,2.056656195,0.04,12.95,2875,0
COHM,12/1/17,3.653766803,1.766121466,0.15,10.35,2976,0
COHM,1/1/18,3.390588037,1.553754279,0.19,8.28,2976,0
COHM,2/1/18,3.960200892,2.051724433,0.17,12.98,2688,0
COHM,3/1/18,4.063571911,2.24956714,0.15,13.73,2976,0
COHM,4/1/18,5.499038191,2.774751156,0.58,18.67,2880,0
COHM,5/1/18,4.338894488,1.895583229,0.4,12.71,2976,0
COHM,6/1/18,4.286704862,2.566509509,0.15,17.65,2880,0
COHM,7/1/18,5.381236565,3.539877198,0.35,22.54,2976,0
COHM,8/1/18,4.300692204,2.435820814,0.3,18.75,2976,0
COHM,9/1/18,4.483440972,3.60662711,0.09,17.88,2880,0
COHM,10/1/18,4.125356184,2.978018194,0.08,16.83,2976,0
COHM,11/1/18,3.552573123,1.786768754,0.3,12.58,2872,0
COHM,12/1/18,3.854754539,2.239454815,0.23,15.9,2974,0
COHM,1/1/19,3.523934812,1.420418477,0.09,7.64,2976,0
COHM,2/1/19,4.012790182,2.123946436,0.11,12.05,2688,0
COHM,3/1/19,3.730322581,2.067571572,0.08,12.45,2976,0
COHM,4/1/19,4.786093752,2.300402336,0.01,15.19,2880,0
COHM,5/1/19,4.89134409,2.921111432,0.18,16.16,2976,0
COHM,6/1/19,5.586079861,2.999584626,0.27,17.5,2880,0
COHM,7/1/19,4.538514786,2.993873153,0.12,20.64,2976,0
COHM,8/1/19,4.904610214,3.056476104,0.11,16.39,2976,0
COHM,9/1/19,4.453614579,2.050726607,0.23,14.24,2880,0
COHM,10/1/19,3.615910618,2.153198873,0,13.39,2976,0
COHM,11/1/19,3.57417361,1.749806104,0.18,10.71,2880,0
COHM,12/1/19,3.683677323,1.774964347,0.09,9.14,2972,0
COHM,1/1/20,3.355203293,1.577360754,0.084,9.11,2976,0
COHM,2/1/20,3.694463004,1.695770651,0.021,8.82,2784,0
COHM,3/1/20,4.519014448,2.813635995,0.04,16.1,2976,0
COHM,4/1/20,4.955160415,2.492165463,0.114,17.02,2880,0
COHM,5/1/20,3.942221776,1.742014056,0.162,10.83,2976,0
COHM,6/1/20,4.745330556,2.904063901,0.281,17.12,2880,0
COHM,7/1/20,4.397468751,2.606430888,0.13,16.44,2976,0
COHM,8/1/20,4.108837026,3.078244271,0.033,21.48,2976,0
COHM,9/1/20,4.526318059,2.830258464,0.247,19.1,2880,0
COHM,10/1/20,4.346011424,2.734829055,0.072,15.55,2976,0
COHM,11/1/20,3.291256598,1.541889815,0.136,9.92,2880,0
COHM,12/1/20,3.464601817,1.559229445,0.239,8.75,2976,0
COHM,1/1/21,3.824516129,1.722130507,0.109,11.74,2976,0
COHM,2/1/21,3.812732882,1.900878747,0.007,12.62,2688,0
COHM,3/1/21,4.071918015,2.405880807,0.047,13.72,2976,0
COHM,4/1/21,4.017277779,2.041331858,0,11.87,2880,0
COHM,5/1/21,4.640552087,2.504582164,0.079,14.23,2976,0
COHM,6/1/21,4.683021529,3.00738613,0.141,23.7,2880,0
COHM,7/1/21,4.016391802,2.463202634,0.24,13.72,2976,0
COHM,8/1/21,4.105181453,3.300027337,0.061,22.81,2976,0
COHM,9/1/21,4.356602083,2.494530763,0.234,15.61,2880,0
COHM,10/1/21,4.243784944,2.779584517,0.091,16.5,2976,0
COHM,11/1/21,3.42690104,1.650715842,0.132,13.23,2880,0
COHM,12/1/21,3.626336819,1.684755905,0.182,10.2,2969,0
COHM,1/1/22,3.494004366,1.602693391,0.015,10.9,2976,0
COHM,2/1/22,3.516591518,1.652661921,0.085,10.07,2688,0
COHM,3/1/22,4.648496641,2.829093695,0.339,22.67,2976,0
COHM,4/1/22,4.45254861,2.671059381,0.238,16.22,2880,0
COHM,5/1/22,5.317454973,3.208641775,0.338,23.56,2976,0
COHM,6/1/22,4.27146771,2.527622419,0.094,13.79,2880,0
COHM,7/1/22,5.522631046,3.525734608,0.065,19.94,2976,0
COHM,8/1/22,4.749816197,2.572174344,0.216,16.02,2976,0
COHM,9/1/22,4.625434027,2.930457928,0.114,15.07,2880,0
COHM,10/1/22,4.018397516,2.879484125,0.016,21.67,2976,0
COHM,11/1/22,3.706859031,1.642592118,0.205,11.87,2880,0
COHM,12/1/22,4.046839599,1.906439218,0.077,11.01,904,0